TimeEDT,TemperatureF,Dew PointF,Humidity,Sea Level PressureIn,VisibilityMPH,Wind Direction,Wind SpeedMPH,Gust SpeedMPH,PrecipitationIn,Events,Conditions,WindDirDegrees,DateUTC
12:52 AM,32.0,21.9,66,30.02,10.0,Calm,Calm,-,N/A,,Clear,0,2014-04-25 04:52:00
1:52 AM,30.0,21.9,72,30.01,10.0,Calm,Calm,-,N/A,,Clear,0,2014-04-25 05:52:00
2:52 AM,28.9,21.0,72,30.00,10.0,Calm,Calm,-,N/A,,Clear,0,2014-04-25 06:52:00
3:52 AM,28.0,21.9,78,30.01,10.0,West,3.5,-,N/A,,Clear,260,2014-04-25 07:52:00
4:52 AM,26.1,21.0,81,30.02,10.0,Calm,Calm,-,N/A,,Clear,0,2014-04-25 08:52:00
5:52 AM,26.1,21.9,84,30.04,10.0,Calm,Calm,-,N/A,,Clear,0,2014-04-25 09:52:00
6:52 AM,28.9,24.1,82,30.06,10.0,Calm,Calm,-,N/A,,Clear,0,2014-04-25 10:52:00
7:52 AM,35.1,24.1,64,30.06,10.0,Calm,Calm,-,N/A,,Clear,0,2014-04-25 11:52:00
8:52 AM,42.1,21.9,45,30.05,10.0,Calm,Calm,-,N/A,,Clear,0,2014-04-25 12:52:00
9:52 AM,46.9,19.9,34,30.04,10.0,Calm,Calm,-,N/A,,Clear,0,2014-04-25 13:52:00
10:52 AM,51.1,18.0,27,30.01,10.0,West,5.8,-,N/A,,Clear,260,2014-04-25 14:52:00
11:52 AM,54.0,12.9,20,29.98,10.0,North,-9999.0,-,N/A,,Clear,0,2014-04-25 15:52:00
12:52 PM,57.9,19.9,23,29.95,10.0,Variable,5.8,-,N/A,,Clear,0,2014-04-25 16:52:00
1:52 PM,60.1,16.0,18,29.91,10.0,Variable,6.9,-,N/A,,Clear,0,2014-04-25 17:52:00
2:52 PM,63.0,17.1,17,29.88,10.0,Calm,Calm,-,N/A,,Clear,0,2014-04-25 18:52:00
3:52 PM,63.0,18.0,18,29.85,10.0,ENE,4.6,-,N/A,,Clear,70,2014-04-25 19:52:00
4:52 PM,64.0,18.0,17,29.81,10.0,ESE,3.5,-,N/A,,Clear,120,2014-04-25 20:52:00
5:52 PM,63.0,16.0,16,29.79,10.0,ESE,6.9,-,N/A,,Clear,120,2014-04-25 21:52:00
6:52 PM,62.1,15.1,16,29.78,10.0,WSW,5.8,-,N/A,,Clear,240,2014-04-25 22:52:00
7:52 PM,57.9,25.0,28,29.77,10.0,SE,10.4,-,N/A,,Scattered Clouds,140,2014-04-25 23:52:00
8:52 PM,59.0,24.1,26,29.79,10.0,ESE,12.7,-,N/A,,Overcast,110,2014-04-26 00:52:00
9:52 PM,57.9,19.9,23,29.80,10.0,North,-9999.0,-,N/A,,Overcast,0,2014-04-26 01:52:00
10:52 PM,55.9,21.0,26,29.78,10.0,Variable,6.9,-,N/A,,Mostly Cloudy,0,2014-04-26 02:52:00
11:52 PM,52.0,27.0,38,29.78,10.0,ESE,5.8,-,0.00,Rain,Light Rain,110,2014-04-26 03:52:00